"startDT [UTC]","vpos","CH4 [ppm]","stdev(CH4) [ppm]","CO2 [ppm]","stdev(CO2) [ppm]","H2O [ppm]","stdev(H2O)","p_LGR [torr]","T_LGR [C]","mt1_LGR [us]","mt2_LGR [us]","T_ECpre [C]","T_EC1 [C]","T_EC2 [C]","p_inlet [hPa]","p_in [hPa]","p_out [hPa]","T_inlet [C]","RH_inlet [%]","dwpt_inlet [C]","T_vent [C]","RH_vent [%]","dwpt_vent [C]","flow_vent [l min-1]","flow_inlet [l min-1]","dwpt_sample [C]","T_room [C]"
2012-07-10 00:00:00,0.0,1.9334,0.0014,382.25,0.32,225.6,42.9,137.99,34.52,24.64,36.37,1.00,-25.66,-25.46,-65,553,-932,29.7,27.3,8.9,29.7,1.2,-30.5,5.73,2.31,-26.1,33.6
2012-07-10 00:01:00,0.0,1.9330,0.0012,382.21,0.31,240.0,32.3,137.99,34.52,24.65,36.37,1.05,-25.67,-25.64,-66,553,-932,29.7,27.2,8.8,29.7,1.2,-30.3,5.73,2.28,-26.0,33.6
2012-07-10 00:02:00,0.0,1.9318,0.0011,382.14,0.29,237.7,43.0,137.99,34.52,24.65,36.38,1.01,-25.68,-25.52,-66,553,-932,29.7,27.0,8.7,29.7,1.1,-30.6,5.73,2.30,-26.0,33.6
2012-07-10 00:03:00,0.0,1.9313,0.0010,382.32,0.31,240.2,37.0,137.99,34.52,24.65,36.37,1.06,-25.69,-25.44,-65,553,-932,29.8,26.5,8.5,29.7,1.2,-30.3,5.73,2.32,-26.0,33.7
2012-07-10 00:04:00,0.0,1.9321,0.0009,382.25,0.38,240.9,32.7,137.99,34.52,24.64,36.37,1.00,-25.69,-25.59,-65,553,-932,29.8,27.1,8.8,29.7,1.2,-30.3,5.73,2.29,-26.0,33.7
2012-07-10 00:05:00,0.0,1.9317,0.0012,382.12,0.35,241.4,36.0,137.99,34.52,24.65,36.37,0.95,-25.71,-25.66,-66,553,-932,29.8,27.1,8.8,29.7,1.2,-30.4,5.73,2.29,-26.0,33.7
2012-07-10 00:06:00,0.0,1.9315,0.0014,382.31,0.32,240.9,41.5,137.99,34.52,24.65,36.37,1.05,-25.72,-25.44,-66,553,-932,29.8,26.8,8.7,29.8,1.2,-30.4,5.73,2.31,-26.0,33.8
2012-07-10 00:07:00,0.0,1.9312,0.0011,382.00,0.32,233.2,40.0,137.99,34.53,24.64,36.38,1.09,-25.72,-25.55,-66,553,-932,29.8,27.2,8.9,29.8,1.1,-30.8,5.73,2.31,-26.0,33.7
2012-07-10 00:08:00,0.0,1.9314,0.0012,382.10,0.31,235.5,36.3,137.99,34.53,24.65,36.37,1.06,-25.73,-25.73,-65,553,-932,29.8,26.9,8.7,29.7,1.2,-30.5,5.73,2.28,-26.0,33.7
2012-07-10 00:09:00,0.0,1.9315,0.0012,382.25,0.26,235.5,32.2,137.99,34.53,24.64,36.37,0.98,-25.74,-25.51,-66,553,-932,29.8,26.8,8.7,29.8,1.1,-30.8,5.73,2.30,-26.0,33.8
2012-07-10 00:10:00,0.0,1.9310,0.0015,382.10,0.34,254.0,35.8,137.99,34.53,24.65,36.37,0.99,-25.75,-25.52,-66,553,-932,29.8,26.9,8.7,29.7,1.1,-30.9,5.73,2.32,-26.0,33.8
2012-07-10 00:11:00,0.0,1.9259,0.0012,382.37,0.35,239.3,42.3,137.99,34.53,24.65,36.36,1.01,-25.76,-25.69,-66,553,-932,29.8,25.7,8.1,29.7,1.1,-30.6,5.73,2.29,-26.0,33.8
2012-07-10 00:12:00,0.0,1.9256,0.0011,382.34,0.35,237.6,33.2,137.99,34.54,24.65,36.37,0.90,-25.27,-25.88,-66,553,-932,29.8,26.1,8.3,29.8,1.1,-30.9,5.73,2.29,-26.0,33.8
2012-07-10 00:13:00,0.0,1.9257,0.0011,381.91,0.30,243.6,39.1,137.99,34.54,24.65,36.37,0.94,-23.59,-26.03,-66,553,-932,29.9,26.6,8.6,29.8,1.2,-30.3,5.73,2.31,-25.9,33.8
2012-07-10 00:14:00,0.0,1.9263,0.0011,382.15,0.37,254.0,42.5,137.99,34.54,24.65,36.37,0.93,-21.64,-26.13,-66,553,-932,29.9,26.0,8.3,29.8,1.3,-29.3,5.73,2.29,-26.0,33.8
2012-07-10 00:15:00,0.0,1.9262,0.0013,382.33,0.34,246.0,37.1,137.99,34.54,24.64,36.37,0.94,-19.71,-26.18,-66,553,-932,29.9,25.8,8.2,29.8,1.4,-28.7,5.73,2.28,-26.0,33.8
2012-07-10 00:16:00,0.0,1.9252,0.0010,382.28,0.31,249.9,31.3,137.99,34.54,24.65,36.36,0.96,-17.86,-26.20,-66,553,-932,29.8,26.0,8.2,29.8,1.4,-28.4,5.73,2.31,-26.0,33.8
2012-07-10 00:17:00,0.0,1.9256,0.0013,382.04,0.29,237.9,37.5,137.99,34.54,24.65,36.38,0.96,-16.09,-26.21,-66,553,-932,29.9,26.2,8.4,29.8,1.4,-28.6,5.73,2.30,-26.0,33.8
2012-07-10 00:18:00,0.0,1.9229,0.0014,382.06,0.35,239.3,40.2,137.99,34.55,24.65,36.38,0.96,-14.43,-26.21,-66,554,-932,29.9,25.5,8.0,29.8,1.3,-29.0,5.73,2.28,-26.0,33.8
2012-07-10 00:19:00,0.0,1.9226,0.0011,382.42,0.41,249.7,40.7,137.99,34.55,24.65,36.37,0.93,-12.84,-26.20,-66,553,-932,29.9,25.0,7.7,29.8,1.3,-28.9,5.73,2.30,-26.0,33.9
2012-07-10 00:20:00,0.0,1.9231,0.0010,382.30,0.37,245.5,40.4,137.99,34.55,24.64,36.38,0.91,-11.34,-26.20,-66,554,-932,29.9,25.3,7.9,29.8,1.3,-29.3,5.73,2.31,-26.0,33.9
2012-07-10 00:21:00,0.0,1.9221,0.0013,382.04,0.35,245.5,34.7,137.99,34.56,24.64,36.37,0.91,-9.90,-26.18,-66,553,-932,29.9,25.5,8.0,29.8,1.3,-29.3,5.73,2.28,-25.9,33.8
2012-07-10 00:22:00,0.0,1.9194,0.0015,382.55,0.37,243.5,38.0,137.99,34.56,24.64,36.37,0.91,-8.56,-26.17,-66,554,-932,29.9,24.0,7.1,29.8,1.3,-29.5,5.73,2.29,-25.9,33.9
2012-07-10 00:23:00,0.0,1.9195,0.0013,382.46,0.38,251.5,32.1,137.99,34.56,24.65,36.37,0.91,-7.28,-26.15,-66,553,-932,29.9,24.7,7.5,29.9,1.3,-29.4,5.73,2.31,-25.9,33.9
2012-07-10 00:24:00,0.0,1.9218,0.0014,382.23,0.29,249.4,40.5,137.99,34.57,24.65,36.37,0.91,-6.07,-26.14,-66,554,-932,29.9,25.1,7.8,29.9,1.2,-29.9,5.73,2.29,-25.9,33.9
2012-07-10 00:25:00,0.0,1.9210,0.0017,382.11,0.34,244.4,35.7,137.99,34.57,24.64,36.37,0.93,-4.92,-26.13,-66,553,-932,29.9,24.9,7.7,29.9,1.2,-29.6,5.73,2.29,-25.9,33.8
2012-07-10 00:26:00,0.0,1.9190,0.0010,382.39,0.30,249.0,37.8,137.99,34.57,24.65,36.37,0.94,-3.84,-26.11,-66,554,-932,29.9,24.6,7.5,29.9,1.2,-29.9,5.73,2.31,-25.9,33.8
2012-07-10 00:27:00,0.0,1.9203,0.0010,382.05,0.32,249.6,31.9,137.99,34.57,24.64,36.37,0.93,-2.79,-26.10,-66,554,-932,29.9,24.9,7.7,29.9,1.2,-30.1,5.73,2.30,-25.9,33.7
2012-07-10 00:28:00,0.0,1.9206,0.0011,382.33,0.32,244.1,33.7,137.98,34.58,24.65,36.37,0.97,-1.80,-26.08,-66,553,-932,29.9,24.6,7.5,29.9,1.2,-29.9,5.73,2.28,-25.9,33.8
2012-07-10 00:29:00,0.0,1.9201,0.0010,381.98,0.36,261.7,39.3,137.99,34.58,24.65,36.37,0.95,-0.87,-26.06,-66,554,-933,29.9,25.1,7.8,29.9,1.2,-30.0,5.73,2.31,-25.9,33.9
2012-07-10 00:30:00,0.0,1.9187,0.0012,382.43,0.42,254.6,30.9,137.98,34.58,24.65,36.37,0.96,0.01,-26.05,-66,554,-932,29.9,23.8,7.0,29.9,1.2,-30.3,5.73,2.31,-25.9,33.9
2012-07-10 00:31:00,0.0,1.9180,0.0013,382.65,0.32,261.9,27.8,137.98,34.58,24.65,36.37,0.97,0.85,-26.03,-66,554,-933,29.9,23.6,6.9,29.9,1.2,-30.3,5.73,2.28,-25.9,33.9
2012-07-10 00:32:00,0.0,1.9164,0.0009,382.37,0.30,253.2,32.4,137.99,34.59,24.64,36.37,0.96,1.64,-26.01,-66,554,-932,29.9,23.6,6.9,29.9,1.1,-30.5,5.73,2.30,-25.9,33.9
2012-07-10 00:33:00,0.0,1.9175,0.0012,382.53,0.27,257.0,35.8,137.98,34.59,24.64,36.36,0.96,2.36,-25.99,-65,554,-933,29.9,23.6,6.9,29.9,1.2,-30.2,5.73,2.31,-25.9,34.0
2012-07-10 00:34:00,0.0,1.9176,0.0014,382.22,0.31,253.5,38.3,137.99,34.59,24.64,36.37,0.95,2.86,-25.97,-66,554,-932,29.9,23.8,7.1,29.9,1.2,-30.3,5.73,2.28,-25.8,34.0
2012-07-10 00:35:00,0.0,1.9157,0.0014,382.29,0.41,259.9,34.5,137.98,34.59,24.65,36.37,0.96,3.05,-25.95,-66,554,-932,29.9,23.1,6.6,29.9,1.2,-30.3,5.73,2.30,-25.8,33.9
2012-07-10 00:36:00,0.0,1.9152,0.0011,382.42,0.34,252.2,37.3,137.98,34.59,24.65,36.37,0.97,3.36,-25.93,-66,554,-933,29.9,23.3,6.7,29.9,1.1,-30.9,5.73,2.31,-25.8,34.0
2012-07-10 00:37:00,0.0,1.9154,0.0011,382.51,0.34,253.6,34.7,137.98,34.60,24.65,36.37,0.96,3.85,-25.92,-66,554,-932,30.0,22.7,6.4,29.9,1.1,-30.5,5.73,2.28,-25.9,33.9
2012-07-10 00:38:00,0.0,1.9148,0.0011,382.66,0.32,254.3,34.4,137.98,34.60,24.65,36.37,0.97,4.40,-25.90,-66,554,-933,29.9,22.8,6.4,29.9,1.1,-30.6,5.73,2.29,-25.8,33.8
2012-07-10 00:39:00,0.0,1.9157,0.0013,382.40,0.31,257.6,36.7,137.98,34.60,24.65,36.37,0.96,4.97,-25.88,-66,554,-932,30.0,23.2,6.7,29.9,1.1,-30.5,5.73,2.31,-25.8,33.8
2012-07-10 00:40:00,0.0,1.9166,0.0010,382.44,0.36,267.3,36.8,137.98,34.61,24.65,36.38,0.96,5.50,-25.87,-66,554,-932,30.0,23.5,6.9,29.9,1.2,-30.5,5.73,2.29,-25.8,33.8
2012-07-10 00:41:00,0.0,1.9167,0.0011,382.55,0.38,260.1,30.2,137.98,34.61,24.65,36.37,0.96,6.02,-25.85,-66,554,-932,30.0,22.9,6.5,29.9,1.1,-30.6,5.73,2.28,-25.8,33.9
2012-07-10 00:42:00,0.0,1.9165,0.0010,382.55,0.31,260.0,35.1,137.98,34.61,24.65,36.37,0.96,6.53,-25.84,-66,554,-932,30.0,23.1,6.6,29.9,1.1,-30.5,5.73,2.31,-25.8,33.9
2012-07-10 00:43:00,0.0,1.9174,0.0009,382.43,0.38,260.4,34.4,137.98,34.61,24.65,36.37,0.96,7.01,-25.82,-66,554,-933,30.0,23.5,6.9,29.9,1.1,-30.8,5.73,2.30,-25.8,33.9
2012-07-10 00:44:00,0.0,1.9187,0.0011,382.42,0.29,257.2,32.5,137.98,34.62,24.64,36.37,0.96,7.48,-25.80,-66,554,-932,30.0,23.6,6.9,29.9,1.1,-30.6,5.73,2.28,-25.8,33.9
2012-07-10 00:45:00,0.0,1.9182,0.0011,382.34,0.28,260.5,35.1,137.98,34.62,24.65,36.37,0.96,7.92,-25.78,-66,554,-933,30.0,23.4,6.9,29.9,1.1,-30.8,5.73,2.31,-25.8,33.9
2012-07-10 00:46:00,0.0,1.9178,0.0009,382.45,0.40,268.1,37.5,137.98,34.62,24.64,36.37,0.95,8.35,-25.77,-66,554,-933,30.0,23.6,6.9,29.9,1.1,-30.8,5.73,2.30,-25.8,34.0
2012-07-10 00:47:00,0.0,1.9178,0.0011,382.35,0.36,261.9,40.2,137.98,34.62,24.64,36.37,0.96,8.76,-25.75,-66,554,-932,30.0,23.6,7.0,30.0,1.1,-30.8,5.73,2.27,-25.8,34.0
2012-07-10 00:48:00,0.0,1.9165,0.0011,382.35,0.34,265.6,33.2,137.98,34.63,24.65,36.37,0.96,9.15,-25.74,-66,554,-933,30.0,23.6,7.0,30.0,1.1,-30.7,5.73,2.30,-25.8,34.0
2012-07-10 00:49:00,0.0,1.9180,0.0012,382.57,0.28,257.4,30.8,137.98,34.63,24.65,36.37,0.96,9.53,-25.72,-66,554,-933,30.0,23.1,6.7,29.9,1.1,-30.8,5.73,2.31,-25.8,34.0
2012-07-10 00:50:00,0.0,1.9186,0.0012,382.41,0.30,257.1,35.7,137.98,34.63,24.64,36.37,0.96,9.91,-25.71,-66,554,-932,30.0,23.5,6.9,29.9,1.1,-30.8,5.73,2.27,-25.8,34.0
2012-07-10 00:51:00,0.0,1.9173,0.0011,382.52,0.36,252.9,32.3,137.98,34.63,24.64,36.37,0.96,10.27,-25.70,-66,554,-933,30.0,23.3,6.8,30.0,1.1,-30.8,5.73,2.29,-25.8,34.0
2012-07-10 00:52:00,0.0,1.9176,0.0013,382.12,0.34,257.4,35.9,137.98,34.64,24.65,36.38,0.96,10.62,-25.69,-66,554,-932,30.0,23.7,7.0,30.0,1.1,-30.7,5.73,2.31,-25.8,34.0
2012-07-10 00:53:00,0.0,1.9177,0.0013,382.16,0.35,259.8,35.4,137.98,34.64,24.65,36.37,0.96,10.96,-25.67,-66,554,-932,30.0,23.5,6.9,30.0,1.1,-30.7,5.73,2.28,-25.8,34.0
2012-07-10 00:54:00,0.0,1.9158,0.0013,382.40,0.35,259.8,34.2,137.98,34.64,24.65,36.37,0.96,11.28,-25.66,-66,554,-933,30.0,22.7,6.5,30.0,1.1,-30.7,5.73,2.29,-25.8,34.0
2012-07-10 00:55:00,0.0,1.9158,0.0011,382.68,0.32,265.8,35.3,137.98,34.65,24.65,36.37,0.97,11.60,-25.65,-66,554,-932,30.1,22.5,6.3,30.0,1.1,-30.8,5.73,2.31,-25.8,34.0
2012-07-10 00:56:00,0.0,1.9149,0.0011,382.76,0.28,254.1,32.7,137.98,34.65,24.65,36.36,0.97,11.90,-25.64,-66,554,-932,30.0,22.3,6.2,30.0,1.1,-30.8,5.73,2.28,-25.8,33.9
2012-07-10 00:57:00,0.0,1.9148,0.0011,382.60,0.35,261.7,35.3,137.98,34.65,24.64,36.37,0.96,12.20,-25.63,-66,554,-933,30.0,22.5,6.3,30.0,1.1,-30.7,5.73,2.28,-25.8,33.9
2012-07-10 00:58:00,0.0,1.9155,0.0012,382.53,0.27,261.2,39.0,137.98,34.66,24.64,36.38,0.96,12.48,-25.62,-66,554,-932,30.1,22.4,6.3,30.0,1.1,-30.7,5.73,2.31,-25.8,33.9
2012-07-10 00:59:00,0.0,1.9153,0.0012,382.75,0.31,263.9,32.2,137.98,34.66,24.65,36.37,0.96,12.75,-25.61,-66,554,-933,30.1,22.3,6.2,30.0,1.1,-30.7,5.73,2.29,-25.8,34.0
2012-07-10 01:00:00,0.0,1.9167,0.0011,382.60,0.38,264.0,39.1,137.98,34.66,24.64,36.38,0.97,13.01,-25.60,-66,554,-933,30.1,22.8,6.6,30.0,1.1,-30.8,5.73,2.28,-25.8,34.0
2012-07-10 01:01:00,0.0,1.9168,0.0011,382.37,0.40,262.9,40.0,137.98,34.67,24.64,36.37,0.97,13.26,-25.59,-66,554,-932,30.1,23.0,6.7,30.0,1.1,-30.9,5.73,2.31,-25.8,34.1
2012-07-10 01:02:00,0.0,1.9164,0.0010,382.79,0.39,263.6,35.8,137.98,34.67,24.65,36.37,0.97,13.50,-25.57,-66,554,-933,30.1,22.5,6.3,30.0,1.1,-30.7,5.73,2.29,-25.8,34.0
2012-07-10 01:03:00,0.0,1.9177,0.0011,382.63,0.27,262.8,34.4,137.98,34.67,24.64,36.37,0.96,13.74,-25.57,-66,554,-932,30.1,23.0,6.6,30.0,1.1,-30.8,5.73,2.27,-25.8,34.0
2012-07-10 01:04:00,0.0,1.9188,0.0011,382.63,0.30,267.1,34.0,137.98,34.68,24.64,36.37,0.97,13.96,-25.55,-66,554,-933,30.1,23.1,6.7,30.0,1.1,-30.6,5.73,2.31,-25.8,34.0
2012-07-10 01:05:00,0.0,1.9189,0.0011,382.42,0.33,262.1,33.7,137.98,34.68,24.65,36.38,0.96,14.18,-25.55,-66,554,-933,30.1,23.4,6.9,30.0,1.1,-30.7,5.73,2.30,-25.8,34.0
2012-07-10 01:06:00,0.0,1.9177,0.0014,382.53,0.39,270.2,35.5,137.98,34.68,24.65,36.36,0.96,14.38,-25.54,-66,554,-932,30.1,22.8,6.6,30.0,1.1,-30.8,5.73,2.27,-25.8,34.1
2012-07-10 01:07:00,0.0,1.9169,0.0013,382.56,0.34,265.4,30.7,137.98,34.69,24.64,36.37,0.97,14.58,-25.53,-66,554,-933,30.1,22.8,6.6,30.0,1.1,-30.7,5.73,2.30,-25.8,34.1
2012-07-10 01:08:00,0.0,1.9170,0.0011,382.74,0.32,264.6,33.8,137.98,34.69,24.65,36.38,0.96,14.77,-25.52,-66,555,-933,30.1,22.6,6.4,30.1,1.1,-30.8,5.73,2.30,-25.8,34.1
2012-07-10 01:09:00,0.0,1.9170,0.0011,382.74,0.31,258.3,40.3,137.98,34.69,24.65,36.36,0.97,14.95,-25.52,-66,555,-933,30.1,22.7,6.5,30.1,1.1,-30.8,5.73,2.27,-25.8,34.0
2012-07-10 01:10:00,0.0,1.9173,0.0010,382.53,0.43,264.5,31.8,137.98,34.70,24.65,36.36,0.96,15.12,-25.51,-66,555,-933,30.1,23.2,6.8,30.1,1.1,-30.7,5.73,2.30,-25.8,34.0
2012-07-10 01:11:00,0.0,1.9172,0.0010,382.53,0.48,268.4,35.4,137.98,34.70,24.64,36.37,0.97,15.28,-25.50,-66,555,-933,30.1,22.7,6.5,30.1,1.1,-30.8,5.73,2.30,-25.8,34.0
2012-07-10 01:12:00,0.0,1.9176,0.0014,382.60,0.39,261.3,32.4,137.98,34.71,24.65,36.38,0.96,15.44,-25.50,-66,554,-933,30.1,22.8,6.6,30.1,1.1,-30.8,5.73,2.27,-25.8,34.0
2012-07-10 01:13:00,0.0,1.9179,0.0012,382.60,0.28,265.1,26.3,137.98,34.71,24.65,36.37,0.97,15.59,-25.48,-66,555,-933,30.1,23.0,6.7,30.1,1.1,-30.7,5.73,2.30,-25.8,34.1
2012-07-10 01:14:00,0.0,1.9182,0.0012,382.27,0.30,264.3,26.5,137.98,34.71,24.65,36.37,0.96,15.73,-25.48,-66,554,-932,30.1,23.7,7.1,30.1,1.1,-30.6,5.73,2.30,-25.8,34.1
2012-07-10 01:15:00,0.0,1.9176,0.0011,382.73,0.40,267.6,30.6,137.98,34.71,24.64,36.37,0.96,15.87,-25.48,-66,555,-933,30.2,22.5,6.4,30.1,1.1,-30.8,5.73,2.27,-25.8,34.1
2012-07-10 01:16:00,0.0,1.9175,0.0011,382.87,0.32,273.5,33.4,137.98,34.72,24.65,36.36,0.97,16.00,-25.47,-66,555,-933,30.1,22.7,6.5,30.1,1.1,-30.8,5.73,2.29,-25.8,34.1
2012-07-10 01:17:00,0.0,1.9188,0.0011,382.74,0.35,265.5,31.9,137.98,34.72,24.65,36.37,0.96,16.13,-25.46,-66,555,-932,30.2,22.8,6.6,30.1,1.1,-30.8,5.73,2.31,-25.8,34.2
2012-07-10 01:18:00,0.0,1.9182,0.0011,382.57,0.37,267.6,29.3,137.98,34.73,24.65,36.37,0.97,16.26,-25.46,-66,555,-933,30.2,23.1,6.8,30.1,1.1,-30.7,5.73,2.28,-25.8,34.2
2012-07-10 01:19:00,0.0,1.9187,0.0009,382.39,0.32,271.4,35.1,137.98,34.73,24.64,36.37,0.97,16.37,-25.45,-66,555,-933,30.2,23.1,6.8,30.1,1.1,-30.6,5.73,2.28,-25.8,34.1
2012-07-10 01:20:00,0.0,1.9187,0.0011,382.57,0.34,267.6,32.9,137.98,34.73,24.64,36.38,0.97,16.48,-25.45,-66,555,-933,30.2,23.0,6.8,30.1,1.1,-30.9,5.73,2.31,-25.8,34.2
2012-07-10 01:21:00,0.0,1.9170,0.0015,382.57,0.38,269.2,35.8,137.98,34.74,24.65,36.37,0.97,16.59,-25.44,-66,555,-933,30.2,22.5,6.4,30.1,1.1,-30.7,5.73,2.28,-25.8,34.1
2012-07-10 01:22:00,0.0,1.9167,0.0010,382.75,0.34,267.1,33.6,137.98,34.74,24.64,36.36,0.98,16.69,-25.44,-66,555,-933,30.2,22.3,6.3,30.2,1.1,-30.7,5.73,2.28,-25.8,34.1
2012-07-10 01:23:00,0.0,1.9168,0.0009,382.68,0.33,272.4,30.3,137.98,34.74,24.65,36.37,0.97,16.79,-25.43,-66,555,-933,30.2,22.6,6.5,30.1,1.1,-30.8,5.73,2.31,-25.8,34.2
2012-07-10 01:24:00,0.0,1.9171,0.0011,382.55,0.34,264.2,31.1,137.98,34.74,24.65,36.37,0.98,16.88,-25.42,-66,555,-933,30.2,22.7,6.6,30.2,1.1,-30.7,5.73,2.28,-25.8,34.2
2012-07-10 01:25:00,0.0,1.9175,0.0011,382.36,0.34,269.4,33.7,137.98,34.75,24.65,36.37,0.97,16.97,-25.42,-66,555,-933,30.2,23.1,6.8,30.2,1.1,-30.8,5.73,2.28,-25.8,34.2
2012-07-10 01:26:00,0.0,1.9175,0.0011,382.34,0.33,276.0,35.6,137.98,34.76,24.64,36.37,0.96,17.06,-25.41,-66,555,-933,30.2,22.7,6.6,30.1,1.1,-30.7,5.73,2.31,-25.8,34.2
2012-07-10 01:27:00,0.0,1.9176,0.0010,382.39,0.33,266.0,34.5,137.98,34.76,24.65,36.37,0.98,17.14,-25.41,-66,555,-933,30.2,22.7,6.6,30.1,1.1,-30.8,5.73,2.29,-25.8,34.3
2012-07-10 01:28:00,0.0,1.9175,0.0011,382.33,0.30,272.9,30.9,137.98,34.76,24.64,36.37,0.99,17.22,-25.40,-66,555,-933,30.2,22.8,6.7,30.2,1.1,-30.7,5.73,2.27,-25.8,34.2
2012-07-10 01:29:00,0.0,1.9174,0.0010,381.97,0.29,271.8,30.0,137.98,34.77,24.65,36.37,0.98,17.29,-25.40,-66,555,-933,30.2,23.2,6.9,30.2,1.1,-30.7,5.73,2.31,-25.8,34.3
2012-07-10 01:30:00,0.0,1.9177,0.0011,382.04,0.28,270.4,34.1,137.98,34.77,24.64,36.37,0.98,17.36,-25.39,-66,555,-933,30.3,23.3,7.0,30.2,1.1,-30.8,5.73,2.29,-25.8,34.2
2012-07-10 01:31:00,0.0,1.9186,0.0010,381.93,0.28,267.7,31.4,137.98,34.77,24.64,36.37,0.99,17.43,-25.39,-66,555,-934,30.3,23.5,7.1,30.2,1.1,-30.9,5.73,2.27,-25.8,34.2
2012-07-10 01:32:00,0.0,1.9192,0.0009,381.81,0.33,269.6,34.3,137.98,34.77,24.64,36.37,0.97,17.50,-25.39,-66,555,-933,30.3,23.6,7.2,30.2,1.0,-31.2,5.73,2.30,-25.8,34.2
2012-07-10 01:33:00,0.0,1.9189,0.0010,381.50,0.35,263.2,30.8,137.98,34.78,24.65,36.38,0.98,17.56,-25.39,-66,555,-933,30.3,23.7,7.3,30.2,1.0,-31.4,5.73,2.29,-25.8,34.2
2012-07-10 01:34:00,0.0,1.9191,0.0011,382.06,0.38,265.7,33.4,137.98,34.78,24.65,36.37,0.99,17.62,-25.38,-66,555,-934,30.3,23.3,7.0,30.2,1.1,-31.2,5.73,2.27,-25.9,34.1
2012-07-10 01:35:00,0.0,1.9194,0.0010,382.08,0.37,269.7,31.5,137.98,34.78,24.65,36.37,0.98,17.68,-25.38,-66,555,-946,30.3,23.6,7.2,30.2,1.0,-31.2,5.73,2.30,-25.9,34.2
2012-07-10 01:36:00,0.0,1.9206,0.0011,381.69,0.29,267.6,31.5,137.98,34.79,24.64,36.37,0.97,17.74,-25.38,-66,555,-933,30.3,23.8,7.3,30.2,1.0,-31.3,5.73,2.30,-25.9,34.3
2012-07-10 01:37:00,0.0,1.9194,0.0011,382.13,0.32,272.3,32.9,137.98,34.79,24.65,36.37,0.99,17.79,-25.37,-66,555,-934,30.3,23.1,6.9,30.2,1.0,-31.4,5.73,2.27,-25.9,34.3
2012-07-10 01:38:00,0.0,1.9189,0.0011,382.33,0.46,268.0,37.2,137.98,34.80,24.65,36.37,0.97,17.84,-25.37,-66,555,-933,30.3,23.4,7.1,30.2,1.0,-31.5,5.73,2.30,-25.9,34.3
2012-07-10 01:39:00,0.0,1.9193,0.0012,382.05,0.35,270.7,33.0,137.98,34.81,24.64,36.37,0.98,17.88,-25.37,-66,555,-933,30.3,23.2,7.0,30.2,1.0,-31.5,5.73,2.30,-25.9,34.3
2012-07-10 01:40:00,0.0,1.9192,0.0012,381.82,0.28,273.6,32.5,137.98,34.81,24.65,36.36,0.97,17.93,-25.37,-66,555,-933,30.3,23.4,7.1,30.2,1.0,-31.5,5.73,2.27,-25.9,34.3
2012-07-10 01:41:00,0.0,1.9172,0.0011,382.60,0.38,265.8,36.7,137.98,34.81,24.65,36.37,0.97,17.97,-25.37,-66,555,-933,30.3,22.4,6.4,30.2,1.0,-31.5,5.73,2.29,-25.9,34.2
2012-07-10 01:42:00,0.0,1.9171,0.0012,382.78,0.37,273.5,33.4,137.98,34.81,24.64,36.37,0.97,18.02,-25.36,-66,555,-933,30.3,22.0,6.1,30.2,1.0,-31.5,5.73,2.30,-25.9,34.2
2012-07-10 01:43:00,0.0,1.9169,0.0009,383.02,0.30,278.9,30.7,137.98,34.82,24.65,36.36,0.97,18.06,-25.36,-66,555,-933,30.3,22.0,6.2,30.2,1.0,-31.5,5.73,2.27,-25.9,34.2
2012-07-10 01:44:00,0.0,1.9181,0.0009,382.84,0.35,260.2,32.3,137.98,34.82,24.65,36.36,0.97,18.10,-25.36,-66,555,-933,30.3,22.5,6.5,30.2,1.0,-31.5,5.73,2.29,-25.9,34.3
2012-07-10 01:45:00,0.0,1.9189,0.0011,382.73,0.27,273.5,33.4,137.98,34.82,24.64,36.37,0.96,18.14,-25.36,-66,555,-933,30.3,22.9,6.8,30.2,1.0,-31.5,5.73,2.30,-25.9,34.3
2012-07-10 01:46:00,0.0,1.9190,0.0009,382.50,0.30,273.4,29.9,137.98,34.83,24.65,36.37,0.96,18.17,-25.36,-66,555,-933,30.3,23.0,6.8,30.2,1.0,-31.5,5.73,2.27,-25.9,34.3
2012-07-10 01:47:00,0.0,1.9189,0.0011,382.62,0.38,280.8,31.8,137.98,34.83,24.65,36.37,0.96,18.21,-25.36,-66,555,-934,30.3,22.5,6.6,30.2,1.0,-31.3,5.73,2.28,-25.9,34.3
2012-07-10 01:48:00,0.0,1.9190,0.0011,382.67,0.40,280.0,33.3,137.98,34.83,24.65,36.37,0.97,18.25,-25.35,-66,555,-933,30.3,22.8,6.7,30.2,1.0,-31.4,5.73,2.31,-25.9,34.3
2012-07-10 01:49:00,0.0,1.9193,0.0013,382.60,0.28,272.7,38.1,137.98,34.84,24.65,36.37,0.96,18.27,-25.35,-66,555,-933,30.3,22.7,6.7,30.2,1.0,-31.5,5.73,2.27,-25.9,34.3
2012-07-10 01:50:00,0.0,1.9191,0.0012,382.37,0.38,274.5,32.7,137.98,34.84,24.65,36.38,0.97,18.31,-25.35,-66,555,-934,30.3,23.3,7.0,30.2,1.0,-31.4,5.73,2.29,-25.9,34.3
2012-07-10 01:51:00,0.0,1.9196,0.0011,382.40,0.33,275.6,32.0,137.98,34.84,24.65,36.37,0.97,18.33,-25.35,-66,555,-933,30.3,23.0,6.9,30.3,1.0,-31.5,5.73,2.31,-25.9,34.3
2012-07-10 01:52:00,0.0,1.9188,0.0011,382.60,0.29,267.2,33.0,137.98,34.85,24.65,36.37,0.97,18.36,-25.35,-66,555,-933,30.3,22.5,6.6,30.3,1.0,-31.5,5.73,2.27,-25.9,34.2
2012-07-10 01:53:00,0.0,1.9181,0.0011,382.79,0.38,276.5,28.7,137.98,34.85,24.65,36.37,0.97,18.39,-25.34,-66,555,-934,30.3,22.4,6.5,30.3,1.0,-31.5,5.73,2.29,-25.9,34.2
2012-07-10 01:54:00,0.0,1.9182,0.0010,382.59,0.27,275.7,29.1,137.98,34.85,24.64,36.37,0.98,18.42,-25.34,-66,555,-933,30.3,22.6,6.6,30.3,1.0,-31.4,5.73,2.30,-25.9,34.2
2012-07-10 01:55:00,0.0,1.9187,0.0011,382.32,0.29,269.1,26.7,137.98,34.86,24.65,36.36,0.97,18.44,-25.34,-66,555,-933,30.3,23.1,6.9,30.3,1.0,-31.5,5.73,2.28,-25.9,34.2
2012-07-10 01:56:00,0.0,1.9191,0.0010,381.96,0.32,279.6,29.6,137.98,34.86,24.65,36.38,0.97,18.46,-25.34,-66,556,-933,30.3,23.3,7.1,30.3,1.0,-31.5,5.73,2.28,-25.9,34.2
2012-07-10 01:57:00,0.0,1.9194,0.0010,382.13,0.43,268.4,38.1,137.98,34.87,24.65,36.37,0.97,18.48,-25.34,-66,555,-934,30.3,23.1,6.9,30.3,1.0,-31.5,5.73,2.31,-25.9,34.3
2012-07-10 01:58:00,0.0,1.9186,0.0011,382.25,0.32,275.3,33.6,137.98,34.87,24.65,36.37,0.99,18.51,-25.34,-66,555,-933,30.3,22.9,6.8,30.3,1.0,-31.4,5.73,2.28,-25.9,34.3
2012-07-10 01:59:00,0.0,1.9183,0.0010,382.59,0.36,273.5,28.8,137.98,34.87,24.65,36.36,0.99,18.53,-25.34,-66,555,-933,30.3,22.6,6.6,30.3,1.0,-31.5,5.73,2.28,-25.9,34.3
2012-07-10 02:00:00,0.0,1.9185,0.0012,382.46,0.33,274.1,30.2,137.98,34.88,24.65,36.36,0.97,18.55,-25.34,-66,555,-934,30.3,22.7,6.7,30.3,1.0,-31.5,5.73,2.31,-25.9,34.3
2012-07-10 02:01:00,0.0,1.9185,0.0009,382.52,0.39,267.5,30.0,137.98,34.89,24.65,36.36,0.99,18.56,-25.34,-66,556,-934,30.3,22.8,6.7,30.3,1.0,-31.5,5.73,2.28,-25.9,34.3
2012-07-10 02:02:00,0.0,1.9185,0.0009,382.54,0.37,275.4,36.0,137.98,34.89,24.65,36.36,0.96,18.58,-25.34,-66,555,-933,30.3,22.5,6.6,30.3,1.0,-31.5,5.73,2.28,-25.9,34.3
2012-07-10 02:03:00,0.0,1.9174,0.0009,382.86,0.38,282.5,31.0,137.98,34.89,24.65,36.36,0.99,18.60,-25.34,-66,555,-933,30.3,22.2,6.3,30.3,1.0,-31.4,5.73,2.31,-25.9,34.3
2012-07-10 02:04:00,0.0,1.9180,0.0011,382.72,0.35,277.5,32.9,137.98,34.89,24.64,36.36,0.98,18.62,-25.34,-66,556,-934,30.3,22.5,6.5,30.3,1.0,-31.5,5.73,2.28,-25.9,34.3
2012-07-10 02:05:00,0.0,1.9187,0.0010,382.32,0.36,277.3,29.4,137.98,34.89,24.65,36.36,0.97,18.63,-25.34,-66,555,-933,30.4,22.7,6.7,30.3,1.0,-31.4,5.73,2.28,-25.9,34.3
2012-07-10 02:06:00,0.0,1.9178,0.0010,382.33,0.37,271.6,33.3,137.98,34.89,24.65,36.37,0.99,18.65,-25.34,-66,556,-933,30.4,22.6,6.7,30.3,1.0,-31.6,5.73,2.31,-25.9,34.3
2012-07-10 02:07:00,0.0,1.9183,0.0010,382.59,0.35,267.5,29.3,137.98,34.90,24.65,36.37,0.99,18.66,-25.34,-66,556,-934,30.4,22.8,6.7,30.3,1.0,-31.5,5.73,2.28,-25.9,34.4
2012-07-10 02:08:00,0.0,1.9186,0.0012,382.46,0.41,268.7,28.2,137.98,34.90,24.65,36.36,0.97,18.67,-25.34,-66,556,-934,30.4,23.0,6.9,30.3,1.0,-31.5,5.73,2.28,-25.9,34.3
2012-07-10 02:09:00,0.0,1.9197,0.0010,382.43,0.33,278.4,31.1,137.98,34.90,24.64,36.37,0.99,18.68,-25.34,-66,555,-933,30.4,23.1,7.0,30.3,1.0,-31.5,5.73,2.31,-25.9,34.4
2012-07-10 02:10:00,0.0,1.9197,0.0009,382.65,0.35,272.3,31.5,137.98,34.91,24.64,36.36,1.11,17.91,-25.35,-66,555,-933,30.4,23.0,6.9,30.3,1.0,-31.4,5.73,2.28,-25.9,34.4
2012-07-10 02:11:00,0.0,1.9194,0.0008,382.72,0.39,283.3,30.2,137.98,34.92,24.65,36.37,1.06,15.86,-25.35,-66,556,-934,30.4,22.9,6.9,30.3,1.0,-31.5,5.73,2.28,-25.9,34.3
2012-07-10 02:12:00,0.0,1.9193,0.0011,382.62,0.32,273.2,32.3,137.98,34.92,24.65,36.37,1.10,13.54,-25.35,-66,556,-933,30.4,22.7,6.7,30.3,1.0,-31.4,5.73,2.30,-25.9,34.3
2012-07-10 02:13:00,0.0,1.9190,0.0009,382.64,0.33,279.8,29.1,137.98,34.93,24.65,36.37,1.05,11.22,-25.34,-66,556,-933,30.4,23.0,6.9,30.3,1.0,-31.4,5.73,2.28,-25.9,34.4
2012-07-10 02:14:00,0.0,1.9201,0.0011,382.70,0.49,260.3,33.9,137.98,34.93,24.65,36.37,1.04,8.97,-25.33,-66,556,-934,30.4,23.3,7.1,30.3,1.0,-31.5,5.73,2.27,-25.9,34.4
2012-07-10 02:15:00,0.0,1.9202,0.0013,382.64,0.37,279.4,31.0,137.98,34.93,24.65,36.36,1.13,6.80,-25.31,-66,556,-933,30.4,22.9,6.8,30.3,1.0,-31.5,5.73,2.30,-25.9,34.4
2012-07-10 02:16:00,0.0,1.9196,0.0009,382.81,0.32,275.5,31.8,137.98,34.94,24.64,36.36,1.06,4.73,-25.30,-66,556,-933,30.4,22.7,6.7,30.3,1.0,-31.4,5.73,2.28,-25.9,34.4
2012-07-10 02:17:00,0.0,1.9163,0.0017,382.82,0.35,271.7,32.9,137.98,34.94,24.65,36.37,1.04,2.78,-25.27,-66,556,-934,30.5,21.5,6.0,30.4,1.0,-31.4,5.73,2.27,-25.9,34.4
2012-07-10 02:18:00,0.0,1.9153,0.0008,382.88,0.40,279.0,38.5,137.97,34.94,24.64,36.37,1.13,0.93,-25.25,-66,556,-933,30.5,21.3,5.9,30.4,1.0,-31.4,5.73,2.30,-25.9,34.4
2012-07-10 02:19:00,0.0,1.9135,0.0017,382.93,0.34,275.9,33.0,137.97,34.95,24.65,36.37,1.06,-0.83,-25.23,-66,556,-933,30.5,20.8,5.5,30.4,1.0,-31.4,5.73,2.28,-25.9,34.4
2012-07-10 02:20:00,0.0,1.9115,0.0010,382.47,0.39,276.2,33.8,137.98,34.95,24.64,36.36,1.03,-2.45,-25.21,-66,556,-934,30.5,21.4,5.9,30.4,1.0,-31.4,5.73,2.27,-25.9,34.4